Regional Weather Roundup
Issued by NWS

Home | Current Version | Previous Version | Text Only | Print | Product List | Glossary Off
Versions: 1 2 3 4 5 6 7 8 9 10 11 12 13 14 15 16 17 18 19 20 21 22 23 24 25 26 27 28 29 30 31 32 33 34 35 36 37 38 39 40 41 42 43 44 45 46 47 48 49 50

000
ASUS43 KOAX 251402
RWRNE

WEATHER ROUNDUP FOR NEBRASKA
NATIONAL WEATHER SERVICE OMAHA NE
900 AM CDT FRI JUL 25 2014

NOTES: SATELLITE DATA IS BEING USED TO AUGMENT CLOUD COVER ABOVE
       12000 FEET.
       "FAIR" INDICATES FEW OR NO CLOUDS BELOW 12,000 FEET WITH NO
       SIGNIFICANT WEATHER AND/OR OBSTRUCTIONS TO VISIBILITY.

  * THESE STATIONS DO NOT REPORT WEATHER SUCH AS RAIN...SNOW OR FOG.

NEZ001>004-019>022-054>056-251500-
NEBRASKA PANHANDLE

CITY           SKY/WX    TMP DP  RH WIND       PRES   REMARKS
SCOTTSBLUFF    SUNNY     69  58  67 NW7       30.04R
ALLIANCE       SUNNY     69  43  38 N14G23    30.02R
CHADRON        SUNNY     71  41  33 N7        30.01R
KIMBALL        MOSUNNY   69  54  57 N9        30.07R
SIDNEY         MOSUNNY   73  57  57 N24G31    30.03R
$$

NEZ057>060-069>072-079>082-251500-
SOUTHWEST NEBRASKA

CITY           SKY/WX    TMP DP  RH WIND       PRES   REMARKS
NORTH PLATTE   SUNNY     74  60  61 NW12      29.86R
IMPERIAL       MOSUNNY   76  57  51 N15       29.91R
LEXINGTON      SUNNY     79  65  60 CALM      29.82R
MCCOOK         SUNNY     77  59  53 W7        29.85R
OGALLALA       SUNNY     73  60  63 N5        29.93R
$$

NEZ005>010-023>029-035>040-094-251500-
NORTH CENTRAL NEBRASKA

CITY           SKY/WX    TMP DP  RH WIND       PRES   REMARKS
VALENTINE      PTSUNNY   72  64  76 NW18G26   29.89R
AINSWORTH      MOSUNNY   73  64  74 NW18G25   29.85R
BROKEN BOW     SUNNY     79  61  53 NW18G26   29.81R
O`NEILL        SUNNY     76  67  73 CALM      29.77R
ORD            SUNNY     76  70  82 CALM      29.77R
THEDFORD       SUNNY     74  63  68 NW15G23   29.89R
$$

NEZ041-046>049-061>064-073>077-083>087-251500-
SOUTH CENTRAL NEBRASKA

CITY           SKY/WX    TMP DP  RH WIND       PRES   REMARKS
GRAND ISLAND   PTSUNNY   83  66  56 SW14      29.78R
AURORA         PTSUNNY   79  71  75 SW10      29.77R
HASTINGS       MOSUNNY   78  65  63 SW7       29.79R
HEBRON         MOSUNNY   82  67  59 SW12G21   29.80R
HOLDREGE       SUNNY     81  59  46 SW10      29.81S
KEARNEY *      SUNNY     81  61  50 SW10      29.81R
YORK           MOSUNNY   81  72  74 SW12G18   29.77R
$$

NEZ011>018-030>034-042>045-251500-
NORTHEAST NEBRASKA

CITY           SKY/WX    TMP DP  RH WIND       PRES   REMARKS
NORFOLK        SUNNY     77  69  76 E13       29.75S
ALBION         SUNNY     77  69  75 S5        29.76R
BLAIR          MOSUNNY   73  64  73 SE13      29.81S
COLUMBUS *     SUNNY     61 N/A N/A E6        29.76F
FREMONT        SUNNY     78  69  74 SE13G18   29.79F
WAYNE          SUNNY     75  68  79 SE14      29.75F
$$

NEZ050>053-065>068-078-088>093-251500-
SOUTHEAST NEBRASKA

CITY           SKY/WX    TMP DP  RH WIND       PRES   REMARKS
LINCOLN        MOSUNNY   85  70  60 SW17      29.76R
OMAHA EPPLEY   MOSUNNY   75  63  66 SE14      29.82R
BEATRICE       MOSUNNY   81  71  73 SW8       29.80S
FALLS CITY     PTSUNNY   80  71  74 S13       29.79F
NEBRASKA CITY  PTSUNNY   74  67  80 E7        29.81R
PLATTSMOUTH    MOSUNNY   74  65  71 E9        29.81R
$$

NEZ044-045-051>053-067-251500-
OMAHA AREA

CITY           SKY/WX    TMP DP  RH WIND       PRES   REMARKS
OMAHA EPPLEY   MOSUNNY   75  63  66 SE14      29.82R
BLAIR          MOSUNNY   73  64  73 SE13      29.81S
FREMONT        SUNNY     78  69  74 SE13G18   29.79F
MILLARD        SUNNY     76  66  72 E5        29.82R
OFFUTT AFB     SUNNY     75  68  79 E12       29.81R
PLATTSMOUTH    MOSUNNY   74  65  71 E9        29.81R
WAHOO          FAIR      78  70  76 E10       29.79R
$$


USA.gov is the U.S. government's official web portal to all federal, state and local government web resources and services.